This demonstration page uses our WeatherBlox Daily Observations layout. Learn more.

41.55636, -103.73856

Hourly Observations for April 8, 2019

Temp ( °F °C ) Dew Point ( °F °C ) Humidity (%) Winds ( mph kmh ) Pressure ( in mb ) Visibility ( mi km ) Precip ( " mm )
12:58 am 00:58 Clear 57 13.7 27 -3 32 32 WNW 10 17 29.99 1016 10 16.0934 0 0
1:58 am 01:58 Partly Cloudy 54 12.1 26 -3.3 34 34 WNW 12 19 30.01 1016 10 16.0934 0 0
2:58 am 02:58 Mostly Cloudy 53 11.6 28 -2.5 38 38 W 8 13 30.01 1016 10 16.0934 0 0
3:58 am 03:58 Partly Cloudy 53 11.5 27 -2.7 37 37 W 13 20 30.01 1016 10 16.0934 0 0
4:58 am 04:58 Clear 50 10 28 -2.5 42 42 W 13 20 30.01 1016 10 16.0934 0 0
5:58 am 05:58 Clear 48 9.1 29 -1.8 47 47 W 13 20 30 1016 10 16.0934 0 0
6:58 am 06:58 Clear 52 10.9 29 -1.8 41 41 W 26 43 29.97 1015 10 16.0934 0 0
7:58 am 07:58 Clear 49 9.5 30 -1.1 48 48 W 22 35 29.96 1015 10 16.0934 0 0
8:58 am 08:58 Clear 50 10.2 30 -1.1 46 46 WNW 21 33 29.96 1015 10 16.0934 0 0
9:58 am 09:58 Clear 52 11 29 -1.7 41 41 WNW 28 44 29.96 1015 10 16.0934 0 0
10:58 am 10:58 Clear 49 9.5 29 -1.4 47 47 W 20 31 29.96 1015 10 16.0934 0 0
11:58 am 11:58 Clear 50 10.2 30 -0.9 46 46 WNW 18 30 29.99 1016 10 16.0934 0 0
12:58 pm 12:58 Sunny 50 9.8 31 -0.8 48 48 WNW 18 30 30 1016 10 16.0934 0 0
1:58 pm 13:58 Sunny 54 12.3 32 -0.2 42 42 W 16 26 30.03 1017 10 16.0934 0 0
2:58 pm 14:58 Sunny 59 14.9 31 -0.8 34 34 WNW 20 31 30.02 1017 10 16.0934 0 0
3:58 pm 15:58 Sunny 62 16.9 30 -1.1 30 30 NW 33 54 30.01 1016 10 16.0934 0 0
4:58 pm 16:58 Sunny 64 17.5 31 -0.8 29 29 NW 31 50 30 1016 10 16.0934 0 0
5:58 pm 17:58 Sunny 64 17.5 31 -0.8 29 29 NW 21 33 29.99 1016 10 16.0934 0 0
6:58 pm 18:58 Partly Cloudy 65 18.2 30 -1.3 27 27 NW 22 35 29.98 1015 10 16.0934 0 0
7:58 pm 19:58 Mostly Cloudy 66 19 30 -1.3 25 25 NW 25 41 29.97 1015 10 16.0934 0 0
8:58 pm 20:58 Partly Cloudy 67 19.7 29 -1.7 24 24 WNW 24 39 29.95 1014 10 16.0934 0 0
9:58 pm 21:58 Sunny 67 19.6 32 -0.2 27 27 WNW 28 44 29.94 1014 10 16.0934 0 0
10:58 pm 22:58 Mostly Sunny 65 18.4 30 -1.2 27 27 WNW 22 35 29.96 1015 10 16.0934 0 0
11:58 pm 23:58 Mostly Cloudy 65 18.1 30 -1.2 27 27 WNW 23 37 29.96 1015 10 16.0934 0 0

Powered by AerisWeather